TimeCDT,TemperatureF,Dew PointF,Humidity,Sea Level PressureIn,VisibilityMPH,Wind Direction,Wind SpeedMPH,Gust SpeedMPH,PrecipitationIn,Events,Conditions,WindDirDegrees,DateUTC
12:15 AM,45.0,43.3,94,29.84,3.0,NNW,11.5,-,0.04,Rain,Heavy Rain,330,2013-04-18 05:15:00
12:35 AM,45.0,43.3,94,29.83,3.0,North,11.5,-,0.13,Rain,Heavy Rain,350,2013-04-18 05:35:00
12:55 AM,43.7,42.1,94,29.83,4.0,NNW,9.2,17.3,0.21,Rain,Heavy Rain,340,2013-04-18 05:55:00
1:15 AM,43.7,42.1,94,29.82,1.0,NNW,13.8,21.9,0.21,Rain,Light Rain,340,2013-04-18 06:15:00
1:35 AM,43.7,42.1,94,29.81,2.0,North,10.4,16.1,0.43,Rain,Heavy Rain,350,2013-04-18 06:35:00
1:55 AM,43.7,42.1,94,29.79,4.0,North,9.2,-,0.52,Rain,Heavy Rain,10,2013-04-18 06:55:00
2:15 AM,43.7,42.1,94,29.76,5.0,NE,11.5,-,0.05,Rain,Rain,50,2013-04-18 07:15:00
2:35 AM,43.7,42.1,94,29.73,7.0,NNE,10.4,-,0.08,Rain,Rain,30,2013-04-18 07:35:00
2:55 AM,44.1,42.4,94,29.72,4.0,NE,9.2,-,0.14,Rain-Thunderstorm,Heavy Thunderstorms and Rain,50,2013-04-18 07:55:00
3:15 AM,44.6,43.0,94,29.72,4.0,East,8.1,-,0.08,Rain,Heavy Rain,80,2013-04-18 08:15:00
3:35 AM,45.0,43.3,94,29.71,4.0,NE,10.4,-,0.16,Rain,Heavy Rain,50,2013-04-18 08:35:00
3:55 AM,45.0,43.3,94,29.71,4.0,ENE,8.1,-,0.25,Rain,Heavy Rain,60,2013-04-18 08:55:00
4:15 AM,45.5,43.7,93,29.70,5.0,East,6.9,-,0.05,Rain,Rain,80,2013-04-18 09:15:00
4:35 AM,45.5,43.9,94,29.68,4.0,ENE,10.4,-,0.10,Rain,Rain,70,2013-04-18 09:35:00
4:55 AM,46.4,44.6,93,29.63,4.0,ENE,10.4,-,0.13,Rain,Light Rain,70,2013-04-18 09:55:00
5:15 AM,46.4,44.6,93,29.59,5.0,ENE,11.5,-,N/A,,Light Drizzle,70,2013-04-18 10:15:00
5:35 AM,46.9,45.5,95,29.59,5.0,East,8.1,-,0.02,Rain,Light Rain,100,2013-04-18 10:35:00
5:55 AM,47.5,45.9,94,29.58,4.0,East,8.1,-,0.04,Rain,Light Rain,100,2013-04-18 10:55:00
6:15 AM,48.4,46.9,95,29.58,4.0,ESE,11.5,-,0.03,Rain-Thunderstorm,Rain,110,2013-04-18 11:15:00
6:35 AM,49.1,47.5,94,29.58,5.0,ESE,12.7,-,0.04,Rain-Thunderstorm,Light Thunderstorms and Rain,110,2013-04-18 11:35:00
6:55 AM,50.4,48.9,95,29.58,4.0,ESE,11.5,-,0.08,Rain,Rain,120,2013-04-18 11:55:00
7:15 AM,51.4,50.0,95,29.59,3.0,ESE,12.7,-,0.05,Rain-Thunderstorm,Rain,120,2013-04-18 12:15:00
7:35 AM,51.4,50.0,95,29.59,5.0,SE,9.2,-,0.08,Rain,Rain,130,2013-04-18 12:35:00
7:55 AM,51.4,50.0,95,29.59,5.0,SSE,5.8,-,0.11,Rain,Light Rain,150,2013-04-18 12:55:00
8:15 AM,52.0,50.5,95,29.59,5.0,Calm,Calm,-,0.02,Rain,Rain,0,2013-04-18 13:15:00
8:35 AM,52.0,50.4,94,29.59,4.0,Calm,Calm,-,0.04,Rain,Rain,0,2013-04-18 13:35:00
8:55 AM,51.4,50.0,95,29.53,1.2,NE,6.9,-,0.04,Rain,Rain,50,2013-04-18 13:55:00
9:15 AM,51.4,50.0,95,29.57,1.5,Calm,Calm,-,N/A,,Overcast,0,2013-04-18 14:15:00
9:35 AM,52.7,51.1,94,29.60,2.0,WNW,4.6,-,0.01,,Overcast,300,2013-04-18 14:35:00
9:55 AM,54.0,52.3,94,29.60,3.0,Calm,Calm,-,0.01,,Overcast,0,2013-04-18 14:55:00
10:15 AM,54.0,52.3,94,29.58,1.8,NNW,4.6,-,N/A,,Overcast,340,2013-04-18 15:15:00
10:35 AM,54.0,52.3,94,29.58,0.5,North,3.5,-,N/A,Fog,Fog,360,2013-04-18 15:35:00
10:55 AM,54.0,52.3,94,29.56,0.8,NNE,5.8,-,N/A,,Overcast,20,2013-04-18 15:55:00
11:15 AM,53.6,53.6,100,29.58,1.8,ENE,4.6,-,N/A,,Overcast,70,2013-04-18 16:15:00
11:35 AM,54.1,52.7,95,29.59,2.5,East,5.8,-,N/A,,Overcast,80,2013-04-18 16:35:00
11:55 AM,55.4,53.6,94,29.57,1.2,East,5.8,-,N/A,,Overcast,90,2013-04-18 16:55:00
12:15 PM,55.2,53.6,94,29.57,1.2,East,5.8,-,N/A,,Overcast,100,2013-04-18 17:15:00
12:35 PM,55.6,54.0,94,29.52,1.0,East,9.2,-,N/A,,Overcast,80,2013-04-18 17:35:00
12:55 PM,56.5,54.9,94,29.53,1.8,SE,12.7,-,N/A,,Overcast,130,2013-04-18 17:55:00
1:15 PM,59.0,57.4,94,29.52,5.0,SSE,13.8,20.7,N/A,,Overcast,150,2013-04-18 18:15:00
1:35 PM,59.0,57.4,94,29.52,7.0,South,12.7,-,N/A,,Overcast,170,2013-04-18 18:35:00
1:55 PM,59.0,57.4,94,29.49,7.0,SSE,9.2,-,N/A,,Overcast,150,2013-04-18 18:55:00
2:15 PM,59.0,57.2,94,29.47,10.0,SSE,9.2,-,N/A,,Overcast,150,2013-04-18 19:15:00
2:35 PM,59.4,57.6,94,29.49,10.0,South,12.7,-,N/A,,Overcast,170,2013-04-18 19:35:00
2:55 PM,61.7,59.9,94,29.48,10.0,SSE,15.0,-,N/A,,Overcast,150,2013-04-18 19:55:00
3:15 PM,61.7,59.5,93,29.47,10.0,SE,12.7,-,N/A,,Overcast,140,2013-04-18 20:15:00
3:35 PM,61.7,59.4,92,29.44,10.0,SSE,13.8,19.6,N/A,,Overcast,150,2013-04-18 20:35:00
3:55 PM,61.7,59.4,92,29.43,10.0,SE,18.4,-,N/A,,Overcast,140,2013-04-18 20:55:00
4:15 PM,61.7,59.0,91,29.43,10.0,SSE,20.7,27.6,N/A,,Overcast,150,2013-04-18 21:15:00
4:35 PM,61.7,59.0,91,-9999,10.0,SSE,26.5,33.4,N/A,,Overcast,150,2013-04-18 21:35:00
4:55 PM,61.7,59.2,91,29.41,3.0,SSE,26.5,35.7,N/A,Rain,Light Rain,150,2013-04-18 21:55:00
5:15 PM,61.7,59.4,92,29.40,5.0,SSE,29.9,35.7,N/A,,Overcast,150,2013-04-18 22:15:00
5:35 PM,57.7,55.4,92,29.42,3.0,SW,18.4,34.5,0.01,Rain,Light Rain,220,2013-04-18 22:35:00
5:55 PM,54.0,51.8,92,29.44,10.0,SSW,28.8,39.1,0.02,,Overcast,210,2013-04-18 22:55:00
6:15 PM,51.1,48.2,90,29.44,10.0,SSW,26.5,36.8,N/A,,Overcast,210,2013-04-18 23:15:00
6:35 PM,47.5,45.0,91,29.46,10.0,SSW,18.4,35.7,N/A,,Overcast,210,2013-04-18 23:35:00
6:55 PM,46.4,43.3,89,29.47,10.0,SW,25.3,32.2,N/A,,Overcast,220,2013-04-18 23:55:00
7:15 PM,46.2,42.3,86,29.47,10.0,SSW,27.6,35.7,N/A,,Overcast,210,2013-04-19 00:15:00
7:35 PM,45.0,41.0,86,29.48,10.0,SSW,29.9,38.0,N/A,,Overcast,210,2013-04-19 00:35:00
7:55 PM,44.4,40.1,85,29.49,10.0,SSW,26.5,34.5,N/A,,Overcast,210,2013-04-19 00:55:00
8:15 PM,43.7,39.2,84,29.51,10.0,SW,24.2,32.2,N/A,,Overcast,220,2013-04-19 01:15:00
8:35 PM,43.7,38.7,82,29.53,10.0,SSW,31.1,38.0,N/A,,Overcast,210,2013-04-19 01:35:00
10:15 PM,40.1,35.2,83,29.53,10.0,SW,24.2,29.9,N/A,,Overcast,220,2013-04-19 03:15:00
10:35 PM,39.2,34.3,83,29.54,10.0,SW,18.4,29.9,N/A,,Overcast,220,2013-04-19 03:35:00
10:55 PM,38.7,34.5,85,29.54,10.0,SW,23.0,31.1,N/A,,Overcast,220,2013-04-19 03:55:00
11:15 PM,38.7,34.7,86,29.54,10.0,SW,24.2,29.9,N/A,Rain,Light Rain,220,2013-04-19 04:15:00
11:35 PM,38.7,34.0,83,29.53,10.0,SW,23.0,29.9,N/A,,Overcast,230,2013-04-19 04:35:00
11:55 PM,38.7,32.4,78,29.52,10.0,SW,26.5,36.8,N/A,,Overcast,230,2013-04-19 04:55:00